NIMBUS 2 DEB

Satellite information

Favourite Embed

Satellite Type and Status

DEBRISIN ORBIT

Key statistics

Satellite NIMBUS 2 DEB at a glance.

Uptime

21604

Days in orbit

Revolutions

≈ 13.8

Per day

Orbit

SSO

Sun Synchronous Orbit

Inclination

100.6

Latest

Satellite identification and parameters

Extended collection of information and parameters for NIMBUS 2 DEB.

Object identification

Identified? True

Debris? True

Object name: NIMBUS 2 DEB

International designator: 1966-040D

Object number (NORAD): 25526

Object ID (CCSDS): 25526

Country: UNITED STATES OF AMERICA (US)

Current information (Y/N): Y

RCS size: SMALL

Orbital parameters

Period: 104.521 minutes

Inclination: 100.5812 deg

SMA: 7350.126 km

Apoapsis: 999.118 km

Periapsis: 944.865 km

RAAN: 256.6098 deg

Eccentricy: 0.0036906

Argument of periapsis: 282.4869 deg

Mean anomaly: 230.0821 deg

Mean motion: 13.77718724 rev/day

Mean motion (dot): 0.00002591 rev/day2

B* drag term: 0.0026334 1/REarth

Two-line elements (TLE)

Creation date: July 6, 2025, 4:10 a.m.

Reference frame: TEME

Reference center: EARTH

Epoch: July 5, 2025, 4:20 p.m. UTC

TLE line 0: 0 NIMBUS 2 DEB

TLE line 1: 1 25526U 66040D 25186.68094617 .00002591 00000-0 26334-2 0 9996

TLE line 2: 2 25526 100.5812 256.6098 0036906 282.4869 230.0821 13.77718724617847

Live tracking on map

Real-time ground track for satellite NIMBUS 2 DEB.

In-orbit conjunctions

A list of the most updated potential collisions computed for object NIMBUS 2 DEB.

Target Orbit TCA Probability of collision Miss distance Type
COSMOS 1349 LEO 2025-06-19 07:56:44 0.004242061 55.0 (m) PAYLOAD

Associated space launch

Nimbus 2, the second in a series of second-generation meteorological research-and-development satellites, added an additional medium-resolution infrared radiometer (MRIR) compared to Nimbus 1.

NIMBUS 2 DEB was lifted into orbit during the mission ‘Thor SLV-2A Agena B | Nimbus 2’, on board a Thor SLV-2A Agena B space rocket.

The launch took place on May 15, 1966, 7:55 a.m. from Space Launch Complex 2E.

For more information about the launch, click the button.

Launch to space Thor SLV-2A Agena B | Nimbus 2
Thor SLV-2A Agena B | Nimbus 2

Agency: N/A

Status: Launch Successful

Launch date: May 15, 1966, 7:55 a.m. UTC

Rocket: Thor SLV-2A Agena B

Launch pad: Space Launch Complex 2E

Location: Vandenberg SFB, CA, USA

...

Latest news about this satellite

There are no fresh news available about this satellite. Check back as we update our databases every day.


Newsletter sign-up

Weekly statistics, charts and insights to help you stay on top of the space industry.